EZY25C EDDH-EGCC

Flight info

Callsign EZY25C
Flight time N/A
Altitude 36000
Route WSN5G WSN N125 ITMIZ DCT MIMVA DCT OTBED
Aircraft A20N/M-SDE2E3FGHIRWXY/LB1

Departure

Time 2026-05-07 18:52
Airport Hamburg Helmut Schmidt Airport (EDDH)

Arrival

Time N/A
Airport Manchester Airport (EGCC)
Time Latitude Longitude Altitude Speed Heading
2026-05-07 17:48 53.63031 10.00347 42 ft 0 kts 122°
2026-05-07 18:40 53.63031 10.00346 42 ft 0 kts 122°
2026-05-07 18:40 53.63035 10.00336 41 ft 2 kts 122°
2026-05-07 18:41 53.63042 10.00317 41 ft 2 kts 123°
2026-05-07 18:41 53.63049 10.00298 40 ft 2 kts 123°
2026-05-07 18:41 53.63058 10.00277 39 ft 2 kts 123°
2026-05-07 18:41 53.63066 10.00256 38 ft 2 kts 122°
2026-05-07 18:42 53.63074 10.00235 38 ft 2 kts 123°
2026-05-07 18:42 53.63082 10.00212 37 ft 2 kts 127°
2026-05-07 18:42 53.63094 10.00197 37 ft 2 kts 158°
2026-05-07 18:42 53.63103 10.00192 37 ft 0 kts 174°
2026-05-07 18:43 53.63111 10.00191 36 ft 0 kts 176°
2026-05-07 18:45 53.63094 10.00193 37 ft 6 kts 176°
2026-05-07 18:45 53.63053 10.00166 37 ft 7 kts 211°
2026-05-07 18:46 53.63002 10.00113 35 ft 10 kts 212°
2026-05-07 18:46 53.62946 10.00050 31 ft 9 kts 219°
2026-05-07 18:46 53.62917 9.99982 30 ft 7 kts 242°
2026-05-07 18:46 53.62900 9.99929 30 ft 1 kts 242°
2026-05-07 18:47 53.62899 9.99922 30 ft 0 kts 243°
2026-05-07 18:47 53.62898 9.99922 30 ft 0 kts 243°
2026-05-07 18:48 53.62898 9.99921 30 ft 0 kts 243°
2026-05-07 18:49 53.62889 9.99891 30 ft 6 kts 242°
2026-05-07 18:49 53.62865 9.99814 31 ft 5 kts 242°
2026-05-07 18:49 53.62870 9.99749 31 ft 6 kts 315°
2026-05-07 18:49 53.62903 9.99715 30 ft 0 kts 332°
2026-05-07 18:51 53.62928 9.99692 30 ft 13 kts 332°
2026-05-07 18:51 53.63184 9.99477 32 ft 76 kts 333°
2026-05-07 18:51 53.63847 9.98901 37 ft 137 kts 334°
2026-05-07 18:52 53.64829 9.98050 225 ft 169 kts 335°
2026-05-07 18:52 53.65895 9.97125 775 ft 177 kts 336°
2026-05-07 18:52 53.66976 9.96213 1488 ft 177 kts 338°
2026-05-07 18:52 53.68079 9.95326 2167 ft 177 kts 339°
2026-05-07 18:53 53.69204 9.94362 2571 ft 193 kts 336°
2026-05-07 18:53 53.70439 9.93234 2947 ft 212 kts 330°
2026-05-07 18:53 53.71512 9.91308 3293 ft 241 kts 296°
2026-05-07 18:53 53.71779 9.88504 3834 ft 256 kts 261°
2026-05-07 18:54 53.71227 9.85535 4300 ft 274 kts 246°
2026-05-07 18:54 53.70437 9.82568 5019 ft 283 kts 245°
2026-05-07 18:54 53.69666 9.79579 5929 ft 283 kts 248°
2026-05-07 18:54 53.68966 9.76508 6851 ft 283 kts 250°
2026-05-07 18:55 53.68314 9.73378 7720 ft 285 kts 251°
2026-05-07 18:55 53.67688 9.70240 8620 ft 288 kts 252°
2026-05-07 18:55 53.67058 9.67047 9391 ft 290 kts 252°
2026-05-07 18:55 53.66428 9.63846 9944 ft 292 kts 252°
2026-05-07 18:56 53.65774 9.60619 10131 ft 292 kts 249°
2026-05-07 18:56 53.64931 9.57503 10191 ft 295 kts 242°
2026-05-07 18:56 53.63815 9.54501 10530 ft 309 kts 235°
2026-05-07 18:56 53.62550 9.51521 10917 ft 327 kts 234°
2026-05-07 18:57 53.61176 9.48350 11274 ft 345 kts 234°
2026-05-07 18:57 53.59716 9.44981 11595 ft 363 kts 234°
2026-05-07 18:57 53.58221 9.41521 11889 ft 379 kts 234°
2026-05-07 18:57 53.56650 9.37879 12182 ft 394 kts 234°
2026-05-07 18:58 53.55021 9.34104 12698 ft 402 kts 234°
2026-05-07 18:58 53.53368 9.30274 13369 ft 405 kts 234°
2026-05-07 18:58 53.51717 9.26455 14024 ft 408 kts 234°
2026-05-07 18:58 53.50064 9.22637 14659 ft 410 kts 234°
2026-05-07 18:59 53.48382 9.18757 15278 ft 413 kts 234°
2026-05-07 18:59 53.46685 9.14849 15880 ft 416 kts 234°
2026-05-07 18:59 53.44979 9.10926 16461 ft 419 kts 234°
2026-05-07 18:59 53.43267 9.06997 17024 ft 422 kts 234°
2026-05-07 19:00 53.41541 9.03043 17568 ft 425 kts 234°
2026-05-07 19:00 53.39791 8.99044 18109 ft 428 kts 234°
2026-05-07 19:00 53.38023 8.95004 18635 ft 431 kts 234°
2026-05-07 19:00 53.36309 8.90916 19134 ft 434 kts 238°
2026-05-07 19:01 53.34804 8.86598 19628 ft 436 kts 243°
2026-05-07 19:01 53.33504 8.81941 20116 ft 439 kts 248°
2026-05-07 19:01 53.32417 8.77197 20584 ft 442 kts 250°
2026-05-07 19:01 53.31363 8.72392 21042 ft 444 kts 250°
2026-05-07 19:02 53.30306 8.67556 21492 ft 447 kts 250°
2026-05-07 19:02 53.29244 8.62705 21911 ft 450 kts 250°
2026-05-07 19:02 53.28167 8.57764 22341 ft 452 kts 250°
2026-05-07 19:02 53.27085 8.52820 22768 ft 455 kts 251°
2026-05-07 19:03 53.26061 8.47842 23160 ft 457 kts 253°
2026-05-07 19:03 53.25113 8.42813 23541 ft 459 kts 253°
2026-05-07 19:03 53.24159 8.37744 23908 ft 461 kts 253°
2026-05-07 19:03 53.23193 8.32624 24284 ft 463 kts 252°
2026-05-07 19:04 53.22234 8.27552 24748 ft 461 kts 252°
2026-05-07 19:04 53.21275 8.22506 25242 ft 460 kts 252°
2026-05-07 19:04 53.20313 8.17460 25721 ft 458 kts 252°
2026-05-07 19:04 53.19347 8.12402 26181 ft 457 kts 252°
2026-05-07 19:05 53.18400 8.07405 26623 ft 456 kts 252°
2026-05-07 19:05 53.17455 8.02381 27076 ft 454 kts 252°
2026-05-07 19:05 53.16526 7.97443 27510 ft 453 kts 252°
2026-05-07 19:05 53.15577 7.92421 27942 ft 452 kts 252°
2026-05-07 19:06 53.14636 7.87471 28368 ft 450 kts 252°
2026-05-07 19:06 53.12757 7.77625 29184 ft 449 kts 252°
2026-05-07 19:06 53.11900 7.72666 29571 ft 448 kts 256°
2026-05-07 19:07 53.11262 7.67585 29960 ft 447 kts 260°
2026-05-07 19:07 53.10860 7.62478 30360 ft 447 kts 264°
2026-05-07 19:07 53.10694 7.57377 30752 ft 446 kts 269°
2026-05-07 19:07 53.10728 7.52252 31126 ft 445 kts 271°
2026-05-07 19:08 53.10809 7.47129 31466 ft 444 kts 271°
2026-05-07 19:08 53.10895 7.42024 31765 ft 444 kts 271°
2026-05-07 19:08 53.10979 7.36871 32063 ft 444 kts 271°
2026-05-07 19:08 53.11058 7.31772 32352 ft 444 kts 270°
2026-05-07 19:09 53.11135 7.26674 32634 ft 444 kts 270°
2026-05-07 19:09 53.11208 7.21527 32917 ft 444 kts 270°
2026-05-07 19:09 53.11276 7.16430 33188 ft 444 kts 270°
2026-05-07 19:09 53.11343 7.11368 33452 ft 444 kts 270°
2026-05-07 19:10 53.11408 7.06199 33699 ft 444 kts 270°
2026-05-07 19:10 53.11470 7.01079 33941 ft 444 kts 270°
2026-05-07 19:10 53.11530 6.95993 34174 ft 444 kts 270°
2026-05-07 19:10 53.11587 6.90900 34373 ft 445 kts 270°
2026-05-07 19:11 53.11642 6.85755 34544 ft 446 kts 270°
2026-05-07 19:11 53.11695 6.80595 34684 ft 447 kts 270°
2026-05-07 19:11 53.11745 6.75467 34827 ft 448 kts 270°
2026-05-07 19:11 53.11795 6.70259 34952 ft 450 kts 270°
2026-05-07 19:12 53.11842 6.65065 35082 ft 450 kts 270°
2026-05-07 19:12 53.11886 6.59884 35204 ft 451 kts 270°
2026-05-07 19:12 53.11929 6.54716 35345 ft 451 kts 270°
2026-05-07 19:12 53.11969 6.49489 35460 ft 451 kts 270°
2026-05-07 19:13 53.12007 6.44290 35589 ft 452 kts 270°
2026-05-07 19:13 53.12042 6.39130 35695 ft 452 kts 270°
2026-05-07 19:13 53.12076 6.33904 35803 ft 453 kts 269°
2026-05-07 19:13 53.12108 6.28631 35908 ft 454 kts 269°
2026-05-07 19:14 53.12163 6.18174 36068 ft 455 kts 269°
2026-05-07 19:14 53.12212 6.07649 36073 ft 456 kts 269°
2026-05-07 19:15 53.12250 5.97176 36077 ft 456 kts 269°
2026-05-07 19:15 53.12278 5.86668 36072 ft 455 kts 269°
2026-05-07 19:16 53.12297 5.76115 36078 ft 455 kts 269°
2026-05-07 19:16 53.12307 5.65637 36077 ft 455 kts 269°
2026-05-07 19:17 53.12307 5.55119 36085 ft 456 kts 269°
2026-05-07 19:17 53.12298 5.44625 36078 ft 457 kts 269°
2026-05-07 19:18 53.12281 5.34118 36090 ft 457 kts 268°
2026-05-07 19:18 53.12254 5.23605 36088 ft 456 kts 268°
2026-05-07 19:19 53.12217 5.13080 36084 ft 456 kts 268°
2026-05-07 19:19 53.12170 5.02525 36089 ft 457 kts 268°
2026-05-07 19:20 53.12117 4.92041 36089 ft 457 kts 268°
2026-05-07 19:20 53.12053 4.81508 36098 ft 457 kts 268°
2026-05-07 19:21 53.11979 4.70990 36097 ft 457 kts 268°
2026-05-07 19:21 53.11896 4.60417 36088 ft 457 kts 268°
2026-05-07 19:22 53.11804 4.49955 36093 ft 456 kts 268°
2026-05-07 19:22 53.11702 4.39399 36096 ft 456 kts 268°
2026-05-07 19:23 53.11591 4.28880 36105 ft 456 kts 268°
2026-05-07 19:23 53.11472 4.18398 36100 ft 456 kts 268°
2026-05-07 19:24 53.11342 4.07846 36100 ft 456 kts 268°
2026-05-07 19:24 53.11203 3.97308 36097 ft 458 kts 268°
2026-05-07 19:25 53.11055 3.86781 36098 ft 457 kts 268°
2026-05-07 19:25 53.10899 3.76270 36093 ft 457 kts 268°
2026-05-07 19:26 53.10731 3.65752 36095 ft 456 kts 268°
2026-05-07 19:26 53.10555 3.55267 36102 ft 456 kts 267°
2026-05-07 19:27 53.10367 3.44768 36096 ft 456 kts 268°
2026-05-07 19:27 53.10206 3.34198 36096 ft 456 kts 269°
2026-05-07 19:28 53.10563 3.23684 36099 ft 457 kts 275°
2026-05-07 19:28 53.11290 3.13236 36092 ft 457 kts 275°
2026-05-07 19:29 53.12023 3.02800 36095 ft 458 kts 275°
2026-05-07 19:29 53.12748 2.92278 36094 ft 458 kts 275°
2026-05-07 19:30 53.13459 2.81754 36093 ft 458 kts 275°
2026-05-07 19:30 53.14158 2.71262 36085 ft 457 kts 275°
2026-05-07 19:31 53.14845 2.60794 36089 ft 458 kts 275°
2026-05-07 19:31 53.15528 2.50246 36086 ft 458 kts 275°
2026-05-07 19:32 53.16197 2.39767 36079 ft 458 kts 275°
2026-05-07 19:32 53.16857 2.29293 36071 ft 457 kts 274°
2026-05-07 19:33 53.17512 2.18754 36079 ft 457 kts 274°
2026-05-07 19:33 53.18156 2.08239 36076 ft 457 kts 274°
2026-05-07 19:34 53.18787 1.97747 36073 ft 457 kts 274°
2026-05-07 19:34 53.19408 1.87282 36075 ft 458 kts 274°
2026-05-07 19:35 53.20024 1.76758 36068 ft 457 kts 274°
2026-05-07 19:35 53.20630 1.66221 36076 ft 457 kts 274°
2026-05-07 19:36 53.21225 1.55729 36068 ft 456 kts 274°
2026-05-07 19:36 53.21811 1.45236 36074 ft 455 kts 274°
2026-05-07 19:37 53.22383 1.34830 36051 ft 456 kts 273°
2026-05-07 19:37 53.22670 1.29547 35850 ft 456 kts 273°
2026-05-07 19:37 53.22951 1.24295 35644 ft 454 kts 273°
2026-05-07 19:38 53.23228 1.19110 35455 ft 452 kts 273°
2026-05-07 19:38 53.23506 1.13877 35245 ft 451 kts 273°
2026-05-07 19:38 53.23775 1.08727 35043 ft 448 kts 273°
2026-05-07 19:38 53.24043 1.03594 34842 ft 447 kts 273°
2026-05-07 19:39 53.24308 0.98462 34610 ft 447 kts 273°
2026-05-07 19:39 53.24570 0.93326 34365 ft 447 kts 273°
2026-05-07 19:39 53.24833 0.88145 34117 ft 448 kts 273°
2026-05-07 19:39 53.25007 0.84690 33950 ft 448 kts 273°
2026-05-07 19:40 53.25351 0.77782 33617 ft 448 kts 273°
2026-05-07 19:40 53.25604 0.72654 33368 ft 448 kts 273°
2026-05-07 19:40 53.25858 0.67466 33118 ft 449 kts 273°
2026-05-07 19:40 53.26106 0.62338 32872 ft 449 kts 273°
2026-05-07 19:41 53.26356 0.57128 32623 ft 449 kts 273°
2026-05-07 19:41 53.26600 0.51993 32377 ft 448 kts 273°
2026-05-07 19:41 53.26843 0.46842 32127 ft 449 kts 273°
2026-05-07 19:41 53.27087 0.41613 31876 ft 449 kts 273°
2026-05-07 19:42 53.27326 0.36447 31642 ft 447 kts 273°
2026-05-07 19:42 53.27562 0.31337 31241 ft 438 kts 272°
2026-05-07 19:42 53.27786 0.26404 30658 ft 422 kts 272°
2026-05-07 19:42 53.28000 0.21650 30066 ft 407 kts 272°
2026-05-07 19:43 53.28205 0.17013 29493 ft 393 kts 272°
2026-05-07 19:43 53.28402 0.12587 29096 ft 377 kts 272°
2026-05-07 19:43 53.28592 0.08343 29051 ft 366 kts 274°
2026-05-07 19:43 53.28992 0.04172 29041 ft 364 kts 282°
2026-05-07 19:44 53.29733 0.00182 28897 ft 357 kts 290°
2026-05-07 19:44 53.30738 -0.03544 28707 ft 349 kts 294°
2026-05-07 19:44 53.31799 -0.07147 28423 ft 343 kts 294°
2026-05-07 19:44 53.32857 -0.10708 28046 ft 340 kts 294°
2026-05-07 19:45 53.33889 -0.14202 27668 ft 337 kts 294°
2026-05-07 19:45 53.34910 -0.17679 27288 ft 334 kts 294°
2026-05-07 19:45 53.35914 -0.21114 26913 ft 331 kts 294°
2026-05-07 19:45 53.36923 -0.24577 26539 ft 328 kts 294°
2026-05-07 19:46 53.37909 -0.27966 26166 ft 325 kts 294°
2026-05-07 19:46 53.38895 -0.31367 25787 ft 322 kts 294°
2026-05-07 19:46 53.39860 -0.34699 25412 ft 320 kts 294°
2026-05-07 19:46 53.40818 -0.38011 25040 ft 317 kts 294°
2026-05-07 19:47 53.41767 -0.41302 24667 ft 315 kts 294°
2026-05-07 19:47 53.42711 -0.44578 24296 ft 312 kts 294°
2026-05-07 19:47 53.43657 -0.47863 23927 ft 310 kts 294°
2026-05-07 19:47 53.44583 -0.51085 23569 ft 308 kts 294°
2026-05-07 19:48 53.45508 -0.54307 23211 ft 305 kts 294°
2026-05-07 19:48 53.46415 -0.57474 22860 ft 303 kts 294°
2026-05-07 19:48 53.47319 -0.60634 22524 ft 301 kts 294°
2026-05-07 19:48 53.48215 -0.63768 22190 ft 299 kts 294°
2026-05-07 19:49 53.49115 -0.66919 21816 ft 297 kts 293°
2026-05-07 19:49 53.49996 -0.70010 21483 ft 295 kts 293°
2026-05-07 19:49 53.50872 -0.73088 21154 ft 293 kts 292°
2026-05-07 19:49 53.51735 -0.76128 20809 ft 291 kts 293°
2026-05-07 19:50 53.52600 -0.79175 20469 ft 289 kts 293°
2026-05-07 19:50 53.53455 -0.82190 20128 ft 287 kts 293°
2026-05-07 19:50 53.54308 -0.85201 19782 ft 285 kts 292°
2026-05-07 19:50 53.55151 -0.88182 19433 ft 283 kts 292°
2026-05-07 19:51 53.55995 -0.91172 19083 ft 282 kts 292°
2026-05-07 19:51 53.56823 -0.94111 18742 ft 280 kts 292°
2026-05-07 19:51 53.57659 -0.97083 18288 ft 283 kts 292°
2026-05-07 19:51 53.58504 -1.00093 17592 ft 295 kts 292°
2026-05-07 19:52 53.59397 -1.03277 16846 ft 308 kts 292°
2026-05-07 19:52 53.60279 -1.06595 16219 ft 312 kts 285°
2026-05-07 19:52 53.60567 -1.10134 15757 ft 307 kts 263°
2026-05-07 19:52 53.60201 -1.13637 15388 ft 302 kts 255°
2026-05-07 19:53 53.59743 -1.17054 14998 ft 300 kts 255°
2026-05-07 19:53 53.59289 -1.20431 14597 ft 299 kts 255°
2026-05-07 19:53 53.58833 -1.23845 14208 ft 297 kts 255°
2026-05-07 19:53 53.58387 -1.27211 13830 ft 296 kts 255°
2026-05-07 19:54 53.57945 -1.30564 13451 ft 294 kts 255°
2026-05-07 19:54 53.57509 -1.33871 13086 ft 291 kts 256°
2026-05-07 19:54 53.57074 -1.37178 12729 ft 289 kts 256°
2026-05-07 19:54 53.56641 -1.40461 12357 ft 287 kts 256°
2026-05-07 19:55 53.56208 -1.43742 11979 ft 286 kts 256°
2026-05-07 19:55 53.55783 -1.46957 11614 ft 284 kts 256°
2026-05-07 19:55 53.55356 -1.50189 11245 ft 282 kts 256°
2026-05-07 19:55 53.54934 -1.53367 10843 ft 282 kts 256°
2026-05-07 19:56 53.54510 -1.56552 10341 ft 279 kts 256°
2026-05-07 19:56 53.54091 -1.59704 9833 ft 274 kts 256°
2026-05-07 19:56 53.53679 -1.62795 9315 ft 268 kts 256°
2026-05-07 19:56 53.53275 -1.65818 8690 ft 265 kts 255°
2026-05-07 19:57 53.52875 -1.68805 8050 ft 263 kts 255°
2026-05-07 19:57 53.52480 -1.71748 7423 ft 263 kts 255°
2026-05-07 19:57 53.52072 -1.74770 6795 ft 265 kts 255°
2026-05-07 19:57 53.51664 -1.77778 6282 ft 264 kts 255°
2026-05-07 19:58 53.51269 -1.80720 5773 ft 259 kts 254°
2026-05-07 19:58 53.50877 -1.83624 5283 ft 254 kts 255°
2026-05-07 19:58 53.50495 -1.86439 4899 ft 245 kts 253°
2026-05-07 19:58 53.50121 -1.89190 4519 ft 237 kts 253°
2026-05-07 19:59 53.49761 -1.91835 4211 ft 230 kts 253°
2026-05-07 19:59 53.49409 -1.94409 3902 ft 225 kts 253°
2026-05-07 19:59 53.49067 -1.96914 3752 ft 219 kts 252°
2026-05-07 19:59 53.48584 -1.99300 3624 ft 209 kts 240°
2026-05-07 20:00 53.47871 -2.01350 3490 ft 198 kts 232°
2026-05-07 20:00 53.47097 -2.03187 3465 ft 191 kts 230°
2026-05-07 20:00 53.46533 -2.04443 3417 ft 180 kts 229°